Gonzalo Riquelme

Olheiro-Chefe - O'Higgins
3 Dez 2028
Domingo
Processo

Personalidade

Adaptabilidade (15) Ambição (18) Controvérsia (18) Lealdade (3) Pressão (12) Profissionalismo (7) Espírito Esportivo (18) Temperamento (10)

Perfil

Estilo de Treinamento Democrático
Licença Continental A
Determinação 9
Gestão de Pessoas 4
Motivação 8
Disciplina 10
Satisfação no Trabalho
100%
Fadiga
0%
Função Olheiro-Chefe
Salário 45.2K p/s
Contrato 14.03.2030

Desempenho

Comportamento Bom
Eficácia do Treinamento
40%
Desenvolvimento do Jogador
35%
Prevenção de Lesões
60%
Implementação Tática
35%

Eventos Recentes

Avaliou um jogador agora
Participou de uma reunião de recrutamento agora
Recomendou um alvo de transferência agora
Recomendou um alvo de transferência agora
Recomendou um alvo de transferência agora
Participou de uma reunião de recrutamento agora
Avaliou um jogador agora
Avaliou um jogador agora

Monitorando agora

358
Jogador Clube Status Habilidade Confiança Observado Última observação Último voto
Ramiro Ruiz Rodríguez Atlético Tucumán Ativo 130 / 130 40% 2 01.12.2028 -
Fabri Vitória Ativo 129 / 124 40% 1 01.12.2028 -
Alexander Díaz Deportivo Riestra Ativo 119 / 130 40% 1 01.12.2028 -
Gonzalo Plata Nacional Ativo 147 / 142 40% 2 30.11.2028 -
Luca Langoni Columbus Crew Ativo 143 / 138 40% 1 30.11.2028 -
Tomás Pozzo Godoy Cruz Ativo 130 / 121 40% 5 29.11.2028 -
Julian Angulo Atletico Nacional Ativo 121 / 125 40% 7 29.11.2028 -
Nahuel Furtado Atletico Nacional Ativo 127 / 128 40% 3 29.11.2028 -
Camilo Martinez Cortulua Ativo 127 / 130 40% 7 28.11.2028 -
Facundo Torres Millonarios Ativo 143 / 141 40% 9 28.11.2028 -
Pedro de la Vega Columbus Crew Ativo 137 / 147 40% 7 27.11.2028 -
Alejandro Piedrahita Deportivo Pereira Ativo 124 / 128 40% 3 27.11.2028 -
Emiliano Gómez Boston River Ativo 131 / 123 40% 4 27.11.2028 -
José Ortiz Atletico Bucaramanga Ativo 128 / 129 40% 2 27.11.2028 -
Guillermo Enrique Huracán Ativo 122 / 119 40% 1 27.11.2028 -
Siro Rosané Estudiantes Ativo 123 / 114 40% 1 27.11.2028 -
Victor Hernandez Santa Fe Ativo 126 / 121 40% 6 25.11.2028 -
Luis Palacios Once Caldas Ativo 123 / 114 40% 2 25.11.2028 -
Pedro Souto Temperley Ativo 126 / 119 40% 2 25.11.2028 -
Léider Riascos Llaneros Ativo 120 / 110 40% 1 25.11.2028 -
Alan Velasco Fortaleza Ativo 135 / 138 40% 1 25.11.2028 -
Hernán López Muñoz San Jose Earthquakes Ativo 137 / 125 40% 3 24.11.2028 -
Jannenson Sarmiento Junior Ativo 122 / 119 40% 2 24.11.2028 -
Juan Hurtado Alianza Petrolera Ativo 133 / 120 40% 6 22.11.2028 -
Juan Cruz de los Santos Nacional Ativo 128 / 126 40% 4 21.11.2028 -
Luis Sánchez Deportes Tolima Ativo 133 / 132 40% 5 21.11.2028 -
Jermein Peña Junior Ativo 125 / 135 40% 2 20.11.2028 -
Yílmar Velásquez Santa Fe Ativo 117 / 124 40% 2 20.11.2028 -
Daniel Barrea Godoy Cruz Ativo 129 / 127 40% 4 20.11.2028 -
Nahuel Curcio Colón Ativo 122 / 119 40% 5 20.11.2028 -
Jonathan De Irastorza Independiente Ativo 140 / 134 40% 3 20.11.2028 -
Patricio Moyano Defensores Ativo 127 / 126 40% 4 19.11.2028 -
Yuber Quiñónes Patriotas Ativo 122 / 123 40% 5 19.11.2028 -
Jáder Quiñónes Once Caldas Ativo 122 / 127 40% 2 19.11.2028 -
Gastón Moreyra Almirante Brown Ativo 124 / 111 40% 2 17.11.2028 -
Bryan Castrillón Independiente Medellin Ativo 117 / 125 40% 1 17.11.2028 -
Mateo Garavito Deportivo Pasto Ativo 120 / 114 40% 4 15.11.2028 -
Kelvin Flórez Deportes Tolima Ativo 115 / 118 40% 4 14.11.2028 -
Aarón Molinas Defensa y Justicia Ativo 126 / 124 40% 1 14.11.2028 -
Pablo Cardona Cortulua Ativo 117 / 125 40% 5 13.11.2028 -
Manuel Duarte Barracas Central Ativo 122 / 124 40% 2 13.11.2028 -
Juan Sebastián Herrera Deportivo La Guaira Ativo 113 / 114 40% 1 13.11.2028 -
Samuel Velásquez Atletico Nacional Ativo 129 / 122 40% 3 12.11.2028 -
Santiago Fernández Talleres Ativo 121 / 120 40% 1 12.11.2028 -
Gastón Benedetti Estudiantes Ativo 126 / 135 40% 1 12.11.2028 -
Diego Hernández Aguilas Doradas Ativo 119 / 122 40% 3 11.11.2028 -
Matías Galarza Talleres Ativo 124 / 127 40% 1 11.11.2028 -
Mateo Mendoza Yokohama F. Marinos Ativo 138 / 118 40% 1 11.11.2028 -
Jan Carlos Ángulo Deportes Tolima Ativo 122 / 126 40% 3 09.11.2028 -
Rodrigo Cabral Huracán Ativo 126 / 121 40% 2 09.11.2028 -
Alcides Benítez Belgrano Ativo 125 / 116 40% 2 09.11.2028 -
Ignacio Vázquez Platense Ativo 130 / 119 40% 3 08.11.2028 -
Aldair Zárate Atletico Bucaramanga Ativo 112 / 115 40% 1 08.11.2028 -
Caio Vidal Deportivo Pereira Ativo 144 / 140 40% 2 07.11.2028 -
Vicente Poggi Godoy Cruz Ativo 123 / 127 40% 3 06.11.2028 -
Adrián Sánchez Belgrano Ativo 127 / 129 40% 1 06.11.2028 -
Aarón Quiros Vélez Ativo 127 / 125 40% 1 06.11.2028 -
Jaen Pineda Real Cartagena Ativo 119 / 117 40% 2 05.11.2028 -
Johan Martínez Deportivo Cali Ativo 122 / 126 40% 5 03.11.2028 -
Emerson Batalla Atletico Bucaramanga Ativo 124 / 119 40% 2 03.11.2028 -
Carlos De Las Salas Aguilas Doradas Ativo 116 / 108 40% 1 01.11.2028 -
Bruno Leyes Godoy Cruz Ativo 132 / 121 40% 2 31.10.2028 -
Julián Palacios Envigado Ativo 128 / 118 40% 4 31.10.2028 -
Josen Escobar Patriotas Ativo 122 / 121 40% 2 31.10.2028 -
Joaquín Varela Independiente Medellin Ativo 113 / 124 40% 1 29.10.2028 -
Santiago Moyano Central Córdoba SdE Ativo 122 / 117 40% 1 29.10.2028 -
Tobías Leiva Estudiantes Ativo 123 / 111 40% 1 27.10.2028 -
Cristian Barrios Junior Ativo 124 / 121 40% 2 26.10.2028 -
Carlos Romaña Atletico Bucaramanga Ativo 116 / 119 40% 1 26.10.2028 -
Jáder Valencia Deportes Tolima Ativo 111 / 109 40% 1 23.10.2028 -
Allan Saint-Maximin Charlotte Football Club Ativo 148 / 145 40% 1 20.10.2028 -
Edwin Mosquera Santa Fe Ativo 122 / 121 40% 3 19.10.2028 -
Andrés Arroyo Atletico Bucaramanga Ativo 126 / 117 40% 2 18.10.2028 -
Alejo Cruz Juventud Ativo 129 / 115 40% 1 18.10.2028 -
Iñaki Larthirigoyen San Telmo Ativo 119 / 130 40% 2 15.10.2028 -
Alan Lescano Argentinos Juniors Ativo 132 / 128 40% 1 15.10.2028 -
Talles Magno New York City Ativo 141 / 134 40% 3 13.10.2028 -
Luciano Cosentino Wanderers Ativo 123 / 122 40% 1 13.10.2028 -
John Córdoba Millonarios Ativo 118 / 115 40% 2 10.10.2028 -
Léider Berrío Independiente Medellin Ativo 113 / 111 40% 1 10.10.2028 -
Alejo Dramisino Atlanta Ativo 120 / 113 40% 2 09.10.2028 -
Antonio Galeano Remo Stars Ativo 123 / 115 40% 3 08.10.2028 -
Néider Ospina Llaneros Ativo 116 / 126 40% 2 08.10.2028 -
Esteban Obregón Montevideo City Torque Ativo 125 / 120 40% 5 06.10.2028 -
Fabián Ángel Cortulua Ativo 112 / 114 40% 1 06.10.2028 -
Alan Rodríguez Rosario Central Ativo 123 / 119 40% 1 05.10.2028 -
Jhomier Guerrero Millonarios Ativo 125 / 113 40% 1 05.10.2028 -
Juan Velázquez Belgrano Ativo 128 / 118 40% 1 03.10.2028 -
Mauro Valiente Estudiantes Ativo 113 / 111 40% 1 03.10.2028 -
Edison López Atletico Nacional Ativo 131 / 115 40% 2 01.10.2028 -
Yeferson Rodallega Envigado Ativo 122 / 122 40% 2 27.09.2028 -
Francisco González Metilli Belgrano Ativo 121 / 133 40% 1 24.09.2028 -
Léyser Chaverra Independiente Medellin Ativo 124 / 127 40% 1 20.09.2028 -
Franco Vedoya Central Norte Ativo 118 / 112 40% 1 20.09.2028 -
Nicolás Retamar Ferro Carril Oeste Ativo 113 / 112 40% 1 17.09.2028 -
Francisco Chaverra Independiente Medellin Ativo 130 / 119 40% 1 17.09.2028 -
Martín Campos Ferro Carril Oeste Ativo 126 / 113 40% 1 15.09.2028 -
Luciano Boggio Nacional Ativo 124 / 124 40% 1 13.09.2028 -
Ramiro Hernandes Belgrano Ativo 132 / 130 40% 2 09.09.2028 -
Federico Bisanz Atlanta Ativo 123 / 110 40% 2 09.09.2028 -
Matko Miljevic Racing Club Ativo 128 / 124 40% 1 09.09.2028 -
Cristian Trujillo Deportes Tolima Ativo 121 / 122 40% 1 05.09.2028 -
Juan Manuel Zapata Envigado Ativo 115 / 127 40% 1 04.09.2028 -
Isaiah Jones Luton Town Ativo 142 / 138 40% 2 09.08.2028 -
Theo Córdoba Ativo 140 / 123 40% 1 09.08.2028 -
Arnau Puigmal Mallorca Ativo 141 / 132 40% 1 09.08.2028 -
Adrián Niño Málaga Ativo 132 / 142 40% 2 07.08.2028 -
Jon Morcillo Almería Ativo 133 / 143 40% 1 07.08.2028 -
Álvaro García Castellón Ativo 131 / 136 40% 1 07.08.2028 -
Pablo Martínez Málaga Ativo 142 / 134 40% 1 17.07.2028 -
Jon Ander Olasagasti Levante Ativo 127 / 144 40% 1 28.06.2028 -
Reiner Campos San Marcos de Arica Ativo 89 / 100 58% 1 19.06.2028 Aprovar
Sebastián Pérez Palestino Ativo 125 / 123 58% 1 07.06.2028 Aprovar
Yusi Alavés Ativo 147 / 148 40% 1 07.06.2028 -
Zito Luvumbo Cagliari Ativo 145 / 126 40% 2 02.06.2028 -
Max Bird Birmingham Ativo 129 / 125 40% 5 31.05.2028 -
Daijiro Chirino Almería Ativo 125 / 142 40% 1 31.05.2028 -
Miguel Rodríguez Alavés Ativo 131 / 134 40% 1 30.05.2028 -
Pablo Santiago Castellón Ativo 128 / 135 40% 1 29.05.2028 -
Martim Neto Elche Ativo 132 / 130 40% 1 27.05.2028 -
Lorenzo Amatucci Deportivo La Coruña Ativo 139 / 147 40% 1 27.05.2028 -
Antonio Blanco Alavés Ativo 158 / 137 40% 1 27.05.2028 -
Kasey McAteer Barnsley Ativo 136 / 125 40% 2 25.05.2028 -
Óscar Aranda Getafe Ativo 151 / 140 40% 1 25.05.2028 -
Jayden Danns Bradford City Ativo 141 / 147 40% 1 24.05.2028 -
Luke McNally Bristol City Ativo 147 / 129 40% 3 23.05.2028 -
Ben Gannon Doak Charlton Athletic Ativo 141 / 156 40% 4 23.05.2028 -
Tyrese Campbell Sheffield United Ativo 147 / 136 40% 1 21.05.2028 -
Riley McGree Middlesbrough Ativo 133 / 147 40% 2 19.05.2028 -
Finn Azaz Southampton Ativo 135 / 121 40% 2 18.05.2028 -
Carlos Alcaraz Stoke City Ativo 156 / 150 40% 3 17.05.2028 -
Callum O'Hare Sheffield United Ativo 130 / 121 40% 1 16.05.2028 -
Manuel Ugarte Leicester City Ativo 161 / 156 40% 1 15.05.2028 -
Marcus Tavernier Bournemouth Ativo 140 / 145 40% 3 13.05.2028 -
Shea Charles Southampton Ativo 144 / 156 40% 2 12.05.2028 -
Callum Brittain Middlesbrough Ativo 125 / 143 40% 1 12.05.2028 -
Tyreece Campbell Charlton Athletic Ativo 140 / 115 40% 2 11.05.2028 -
Matěj Jurásek Doncaster Rovers Ativo 116 / 123 40% 1 11.05.2028 -
Mark Sykes Millwall Ativo 133 / 121 40% 1 10.05.2028 -
Brais Méndez RC Lens Ativo 157 / 153 40% 5 09.05.2028 -
Jayden Addai Bari Ativo 133 / 141 40% 1 09.05.2028 -
Sorba Thomas Stoke City Ativo 134 / 134 40% 2 05.05.2028 -
Todd Cantwell Blackburn Rovers Ativo 122 / 128 40% 1 05.05.2028 -
Brandon Thomas-Asante Blackpool Ativo 125 / 136 40% 5 04.05.2028 -
Jaidon Anthony Derby County Ativo 147 / 131 40% 2 04.05.2028 -
André Wolverhampton Ativo 147 / 139 40% 2 03.05.2028 -
Yerson Mosquera Wolverhampton Ativo 132 / 156 40% 1 03.05.2028 -
Welington Southampton Ativo 140 / 129 40% 1 03.05.2028 -
Derry Murkin Derby County Ativo 140 / 120 40% 1 01.05.2028 -
Nathan Broadhead Wrexham Ativo 120 / 126 40% 1 01.05.2028 -
Ryan Sessegnon Fulham Ativo 155 / 161 40% 1 25.04.2028 -
Jacques Ekomié Wrexham Ativo 139 / 130 40% 1 25.04.2028 -
Demarai Gray Birmingham Ativo 128 / 132 40% 1 20.04.2028 -
Sebastiano Esposito Cagliari Ativo 159 / 132 40% 1 17.04.2028 -
Oladapo Afolayan Blackburn Rovers Ativo 118 / 129 40% 1 17.04.2028 -
Yasin Ayari Middlesbrough Ativo 140 / 148 40% 1 17.04.2028 -
Andrés Gómez Vasco da Gama Ativo 150 / 142 40% 3 12.04.2028 -
Kevin Medina Mirandés Ativo 135 / 118 40% 1 12.04.2028 -
Jeremy Sarmiento Middlesbrough Ativo 141 / 134 40% 3 08.04.2028 -
Abdoul Ouattara Port Vale Ativo 138 / 128 40% 2 06.04.2028 -
Jacob Greaves Ipswich Town Ativo 137 / 131 40% 3 05.04.2028 -
Dwight McNeil Crystal Palace Ativo 147 / 147 40% 2 05.04.2028 -
Adam Kaied Zamalek Ativo 119 / 130 40% 2 05.04.2028 -
Juan Bezerra Zamalek Ativo 129 / 122 40% 2 29.03.2028 -
Sorriso Famalicao Ativo 125 / 138 40% 1 26.03.2028 -
Iker Benito Casa Pia Ativo 136 / 124 40% 5 24.03.2028 -
João Carvalho Estoril Praia Ativo 126 / 130 40% 1 21.03.2028 -
Paulo Henrique Vasco da Gama Ativo 124 / 125 40% 2 19.03.2028 -
Cristian Medina Botafogo Ativo 123 / 132 40% 1 17.03.2028 -
Majid Jahanbakhsh Rah Ahan Ativo 130 / 140 40% 1 16.03.2028 -
William Osula Wrexham Ativo 123 / 124 40% 1 15.03.2028 -
David Carmo Olympiacos Ativo 148 / 151 40% 1 13.03.2028 -
Bernard Tekpetey Ludogorets Ativo 118 / 117 40% 2 11.03.2028 -
Lautaro Guzmán MTK Budapest Ativo 117 / 114 40% 2 10.03.2028 -
Nuno Moreira Vasco da Gama Ativo 127 / 132 40% 1 09.03.2028 -
Samuel Edozie Southampton Ativo 148 / 145 40% 1 05.03.2028 -
Bénie Traoré New York City Ativo 137 / 126 40% 3 01.03.2028 -
Harry Wilson Leeds United Ativo 135 / 157 40% 2 29.02.2028 -
Henry Mosquera Bragantino Ativo 136 / 125 40% 1 26.02.2028 -
Luis Rodriguez Valur Ativo 122 / 116 40% 2 24.02.2028 -
Marquinhos Spartak Moscow Ativo 128 / 124 40% 1 21.02.2028 -
Marino Hinestroza Bahia Ativo 121 / 130 40% 1 19.02.2028 -
Benjamín Rollheiser Santos Ativo 132 / 125 40% 1 18.02.2028 -
Gustavo Neves Bragantino Ativo 125 / 123 40% 1 18.02.2028 -
Vitinho Botafogo Ativo 136 / 127 40% 1 17.02.2028 -
Lucas Assadi AIK Ativo 149 / 120 40% 1 12.02.2028 -
Nicolás Garayalde Liverpool Montevideo Ativo 112 / 120 40% 2 10.02.2028 -
Quinn Sullivan Philadelphia Union Ativo 131 / 126 40% 1 10.02.2028 -
Facundo Colidio Vasco da Gama Ativo 142 / 134 40% 1 09.02.2028 -
Felipe Mora San Luis Ativo 125 / 109 55% 1 20.12.2027 -
Maximiliano Gómez Nacional Ativo 137 / 119 40% 3 13.12.2027 -
Jean Carlos Pestaña Junior Ativo 127 / 111 40% 1 30.11.2027 -
Dylan Lozano Aguilas Doradas Ativo 116 / 117 40% 2 11.11.2027 -
Alejandro Molina Tristán Suárez Ativo 107 / 109 40% 1 11.11.2027 -
Geindry Cuervo Envigado Ativo 122 / 115 40% 2 08.11.2027 -
Luis Jiménez Jaguares Ativo 107 / 100 40% 2 06.11.2027 -
José Caldera Deportivo Cali Ativo 112 / 115 40% 1 06.11.2027 -
Emiliano Álvarez Progreso Ativo 122 / 124 40% 1 31.10.2027 -
Cristian Graciano Deportivo Pasto Ativo 105 / 115 40% 1 30.10.2027 -
Brian Nievas Chaco For Ever Ativo 98 / 100 40% 1 21.10.2027 -
Alan García Wanderers Ativo 114 / 105 40% 1 04.10.2027 -
Emanuel Coronel Rosario Central Ativo 126 / 122 40% 1 04.10.2027 -
Steven Pabón Trujillanos Ativo 96 / 113 40% 1 06.09.2027 -
Ben Nelson Leicester City Ativo 132 / 137 40% 1 08.08.2027 -
Joel Bagan Cardiff City Ativo 113 / 109 40% 1 08.08.2027 -
Hamza Choudhury Leicester City Ativo 111 / 132 40% 4 06.08.2027 -
Alfie Jones Middlesbrough Ativo 132 / 116 40% 2 05.08.2027 -
Japhet Tanganga Sheffield United Ativo 155 / 147 40% 1 05.08.2027 -
Lewis Gibson Preston Ativo 118 / 112 40% 1 21.06.2027 -
Romelle Donovan Brentford Ativo 129 / 137 40% 4 04.06.2027 -
Riley Owen Stevenage Ativo 104 / 119 40% 1 04.06.2027 -
Lander Astiazarán Real Sociedad Ativo 92 / 126 40% 2 01.06.2027 -
Mateus Mané Burnley Ativo 152 / 138 40% 2 01.06.2027 -
Sampson Dweh Mallorca Ativo 133 / 134 66% 1 01.06.2027 Aprovar
Bazoumana Touré Newcastle United Ativo 135 / 130 40% 3 30.05.2027 -
Michael Baidoo Plymouth Argyle Ativo 133 / 140 40% 1 28.05.2027 -
Connor Ogilvie Grimsby Town Ativo 94 / 126 40% 2 27.05.2027 -
Daniel Awuni Aduana Stars Ativo 73 / 108 40% 2 26.05.2027 -
Dara O'Shea Ipswich Town Ativo 153 / 128 40% 6 23.05.2027 -
Max Johnston Derby County Ativo 109 / 130 40% 4 22.05.2027 -
Alfie Devine Preston Ativo 111 / 119 40% 1 21.05.2027 -
Ferland Mendy Real Madrid Ativo 156 / 143 40% 5 20.05.2027 -
Oscar Schwartau Norwich City Ativo 121 / 128 40% 3 20.05.2027 -
Mattia Rutigliano Pro Vercelli Ativo 109 / 98 40% 2 19.05.2027 -
Caleb Yirenkyi Coventry City Ativo 146 / 141 40% 3 18.05.2027 -
Brooke Norton-Cuffy Hull City Ativo 122 / 144 40% 3 17.05.2027 -
Leo Castledine Middlesbrough Ativo 123 / 142 40% 2 15.05.2027 -
Jonathan Varane Queens Park Rangers Ativo 125 / 112 40% 2 15.05.2027 -
Mohamadou Kanté Crawley Town Ativo 129 / 119 40% 2 15.05.2027 -
Valentino Acuña Newell's Old Boys Ativo 116 / 112 40% 1 14.05.2027 -
Alfie Doughty Millwall Ativo 110 / 121 40% 1 13.05.2027 -
Atsuki Ito Bolton Wanderers Ativo 132 / 113 40% 1 12.05.2027 -
Borna Knezović Casarano Ativo 118 / 108 40% 1 10.05.2027 -
Azor Matusiwa Ipswich Town Ativo 132 / 143 40% 1 09.05.2027 -
Williams Wonah AS Police Ativo 76 / 73 40% 1 07.05.2027 -
Jay Matete Milton Keynes Dons Ativo 122 / 113 40% 1 05.05.2027 -
Harry Clarke Preston Ativo 144 / 128 40% 3 03.05.2027 -
Bosun Lawal Stoke City Ativo 142 / 138 40% 2 02.05.2027 -
Aidan Morris Middlesbrough Ativo 141 / 123 40% 1 02.05.2027 -
Toti Wolverhampton Ativo 132 / 122 40% 2 01.05.2027 -
Lewis Bate Stockport County Ativo 117 / 130 40% 4 30.04.2027 -
Joe Tomlinson Milton Keynes Dons Ativo 96 / 89 40% 1 29.04.2027 -
Sondre Tronstad Blackburn Rovers Ativo 106 / 116 40% 1 26.04.2027 -
Georgie Gent Barnsley Ativo 97 / 100 40% 1 26.04.2027 -
Ryan Oné Sheffield United Ativo 116 / 129 40% 1 24.04.2027 -
Kristoffer Lund Birmingham Ativo 128 / 128 40% 1 24.04.2027 -
Florentino Luís Ipswich Town Ativo 141 / 145 40% 5 18.04.2027 -
Oliver Skipp Leicester City Ativo 119 / 116 40% 1 15.04.2027 -
Lucas Da Cunha Como Ativo 154 / 157 40% 3 13.04.2027 -
Martim Cunha Porto Ativo 83 / 120 40% 1 12.04.2027 -
Pablo García Gijón Ativo 122 / 105 40% 3 07.04.2027 -
Matthew Targett Hull City Ativo 125 / 119 40% 1 06.04.2027 -
Lewis O'Brien Wrexham Ativo 124 / 131 40% 1 31.03.2027 -
Jack Currie Oxford United Ativo 141 / 122 40% 2 29.03.2027 -
Marc Bola Watford Ativo 131 / 122 40% 2 25.03.2027 -
Kane Wilson Milton Keynes Dons Ativo 117 / 100 40% 1 25.03.2027 -
Adam Randell Bristol City Ativo 124 / 140 40% 1 24.03.2027 -
Nicolas Madsen Queens Park Rangers Ativo 116 / 121 40% 1 24.03.2027 -
James Dornelly Peterborough United Ativo 92 / 95 40% 2 21.03.2027 -
Jordan Lotomba Bloemfontein Celtic Ativo 119 / 110 40% 3 18.03.2027 -
Tom Pearce Chesterfield Ativo 95 / 109 40% 1 15.03.2027 -
Will Hughes Bloemfontein Celtic Ativo 153 / 126 40% 4 11.03.2027 -
Brooklyn Poggenpoel Maritzburg United Ativo 109 / 117 40% 2 08.03.2027 -
Yhormar Hurtado Lechia Ativo 128 / 112 40% 1 04.03.2027 -
Dennis Cirkin Queens Park Rangers Ativo 123 / 134 40% 1 04.03.2027 -
Hidemasa Morita Hull City Ativo 129 / 143 40% 2 28.02.2027 -
Tariq Lamptey Queens Park Rangers Ativo 141 / 146 40% 1 28.02.2027 -
Terry Devlin Portsmouth Ativo 102 / 116 40% 1 26.02.2027 -
Daniel Harvie Wycombe Wanderers Ativo 126 / 114 40% 2 22.02.2027 -
Veljko Radosavljević Cukaricki Ativo 98 / 92 40% 1 15.02.2027 -
Martin Gjorgievski Zbrojovka Brno Ativo 122 / 102 40% 1 14.02.2027 -
Davide Calabria Panathinaikos Ativo 156 / 119 40% 1 07.02.2027 -
Jay McGrath Doncaster Rovers Ativo 115 / 94 40% 1 05.02.2027 -
Marcus McGuane Huddersfield Town Ativo 115 / 105 40% 1 04.02.2027 -
Lloyd Jones Charlton Athletic Ativo 128 / 117 40% 2 01.02.2027 -
Fawaaz Basadien Mamelodi Sundowns Ativo 103 / 131 40% 1 01.02.2027 -
Lautaro Vargas Unión de Santa Fe Ativo 129 / 125 40% 1 17.01.2027 -
José Bernal Ethnikos Achnas Ativo 110 / 103 40% 2 15.01.2027 -
Cian Ashford Cardiff City Ativo 109 / 137 40% 2 11.01.2027 -
Othmane Maamma Watford Ativo 138 / 142 40% 1 11.01.2027 -
Maicon Levski Ativo 114 / 112 40% 1 11.01.2027 -
Ignacio Rodríguez Racing Club Ativo 128 / 131 40% 1 11.01.2027 -
Daniel Kyerewaa Reading Ativo 94 / 117 40% 1 05.01.2027 -
Juan Bisanz Huracán Ativo 121 / 124 40% 1 05.01.2027 -
Pelle Mattsson Norwich City Ativo 137 / 138 40% 1 05.01.2027 -
Armstrong Oko-Flex Levski Ativo 112 / 126 40% 3 01.01.2027 -
Petar Stanić Ludogorets Ativo 121 / 142 40% 2 01.01.2027 -
Alex Vigo Independiente Rivadavia Ativo 114 / 108 40% 1 01.01.2027 -
Job Ochieng Real Sociedad Ativo 86 / 119 40% 1 29.12.2026 -
Andre Dozzell Bradford City Ativo 102 / 111 40% 1 29.12.2026 -
Nathan Moriah-Welsh Mansfield Town Ativo 105 / 99 40% 1 28.12.2026 -
Thomas Carrique Andorra Ativo 113 / 105 40% 2 26.12.2026 -
Pedro Ramírez Deportivo Riestra Ativo 108 / 125 40% 1 26.12.2026 -
Ekain Orobengoa Real Sociedad Ativo 113 / 90 40% 1 24.12.2026 -
Matías Fernández Independiente Rivadavia Ativo 123 / 112 40% 2 23.12.2026 -
Rubens Dinamo Moscow Ativo 111 / 139 40% 1 14.12.2026 -
Alex Luna Instituto Ativo 118 / 125 40% 1 01.12.2026 -
Jack McGlynn Stoke City Ativo 147 / 132 40% 1 01.12.2026 -
Nicolás Cordero Aldosivi Ativo 123 / 107 40% 2 29.11.2026 -
Joaquín Gho Argentinos Juniors Ativo 127 / 115 40% 1 27.11.2026 -
Antony Alonso Deportivo Riestra Ativo 117 / 128 40% 1 27.11.2026 -
Tomás Fernández Aldosivi Ativo 106 / 111 40% 1 26.11.2026 -
Esteban da Silva Racing Ativo 125 / 107 40% 1 20.11.2026 -
Justo Giani Umraniyespor Ativo 139 / 109 40% 2 19.11.2026 -
Leandro Suhr Boston River Ativo 116 / 110 40% 1 16.11.2026 -
Joaquín Zeballos Wanderers Ativo 99 / 114 40% 1 16.11.2026 -
Gonzalo Carneiro Sparta Prague Ativo 106 / 119 40% 3 13.11.2026 -
Richard Koné Queens Park Rangers Ativo 115 / 124 40% 1 13.11.2026 -
Assad Al Hamlawi Universitatea Craiova Ativo 107 / 102 40% 2 07.11.2026 -
Mariano Bracamonte Deportivo Riestra Ativo 112 / 107 40% 4 07.11.2026 -
Alexey Miranchuk Atlanta United FC Ativo 155 / 148 40% 7 05.11.2026 -
Josh Sargent Toronto FC Ativo 121 / 127 40% 1 02.11.2026 Mais informações
Marcelo Allende Mamelodi Sundowns Ativo 110 / 147 40% 1 29.10.2026 -
Matej Trusa DAC Dunajska Streda Ativo 103 / 128 40% 1 26.10.2026 -
Nicolás Sosa Racing Ativo 124 / 106 40% 2 24.10.2026 -
Alexander Aravena Portland Timbers Ativo 127 / 137 40% 1 23.10.2026 -
Juan Pablo Gallego Fehervar Ativo 110 / 102 40% 1 23.10.2026 -
Myrto Uzuni Austin FC Ativo 139 / 129 40% 2 21.10.2026 -
Eric Ramírez Ankaragucu Ativo 96 / 95 40% 2 21.10.2026 -
Jackson Muleka Konyaspor Ativo 127 / 137 40% 1 19.10.2026 -
Dominik Marczuk Real Salt Lake Ativo 103 / 103 40% 1 18.10.2026 -
Max Fenger Helsingborg Ativo 124 / 114 40% 1 15.10.2026 -
Marcelo Torres Gimnasia La Plata Ativo 129 / 115 40% 4 12.10.2026 -
Callum Robinson Poltava Ativo 128 / 106 40% 2 12.10.2026 -
Germán Berterame Inter Miami CF Ativo 145 / 127 40% 3 11.10.2026 -
Cheikh Sabaly Vancouver Whitecaps Ativo 111 / 127 40% 5 09.10.2026 -
Gaspar Duarte Rosario Central Ativo 116 / 118 40% 1 05.10.2026 -
Juan Manuel Sanabria Real Salt Lake Ativo 124 / 118 40% 1 05.10.2026 -
Federico Martínez MFK Ruzomberok Ativo 127 / 110 40% 3 29.09.2026 -
Yorbe Vertessen Red Bull Salzburg Ativo 127 / 122 40% 1 29.09.2026 -
Dániel Gazdag New England Revolution Ativo 137 / 133 40% 1 27.09.2026 -
Indiana Vassilev Philadelphia Union Ativo 113 / 113 40% 1 24.09.2026 -
Jordan Morris Seattle Sounders Ativo 118 / 126 40% 2 21.09.2026 -
João Klauss LA Galaxy Ativo 135 / 128 40% 1 21.09.2026 -
Victor Olatunji Real Salt Lake Ativo 121 / 127 40% 1 13.09.2026 -
Rodrigo Mosqueira Stjarnan Ativo 92 / 116 40% 1 09.09.2026 -
Jonathan Cañete Portuguesa Ativo 124 / 114 40% 2 08.09.2026 -
David Ayala Inter Miami CF Ativo 115 / 112 40% 1 08.09.2026 -
Morgan Guilavogui Real Salt Lake Ativo 130 / 128 40% 1 06.09.2026 -
Kelvin Yeboah Minnesota United FC Ativo 126 / 131 40% 1 03.09.2026 -
Lewis Morgan Toronto FC Ativo 133 / 136 40% 2 29.08.2026 -
Marcelo Fernández Libertad Ativo 100 / 114 40% 1 26.08.2026 -
Luis Iberico Sporting Cristal Ativo 115 / 103 40% 1 26.08.2026 -
Pep Biel Charlotte Football Club Ativo 125 / 139 40% 1 24.08.2026 -
Walter González Sportivo Luqueno Ativo 125 / 123 40% 1 24.08.2026 -
David Lemos Hammarby Ativo 126 / 116 40% 1 22.08.2026 -
Brandon Vázquez Austin FC Ativo 114 / 108 40% 2 18.08.2026 -
Juan Romero Olimpia Ativo 113 / 127 40% 1 17.08.2026 -
Adalberto Peñaranda Deportivo Tachira Ativo 101 / 111 40% 1 08.08.2026 -
Francisco Galván Deportivo Municipal Ativo 103 / 98 40% 1 07.08.2026 -
Carlos Faya Deportivo La Guaira Ativo 115 / 119 40% 1 06.08.2026 -
Nahuel Brunet Godoy Cruz Ativo 99 / 120 40% 1 06.08.2026 -
Eryc Castillo Alianza Lima Ativo 121 / 112 40% 1 06.08.2026 -
Iván Maggi Sportivo Luqueno Ativo 105 / 107 40% 1 06.08.2026 -
Richard Celis Zamora Ativo 106 / 113 40% 1 03.08.2026 -
Cristhian Paredes Cerro Porteno Ativo 111 / 104 40% 1 03.08.2026 -
Matías Melluso Gimnasia La Plata Ativo 121 / 115 40% 1 03.08.2026 -
Gastón Pereiro Juventud Ativo 118 / 113 40% 1 01.08.2026 -